Temp
14 14 14 15 15 15 15 16 15 14 14 13 13 12 12 11 11 11 11 10 10 9
14 15 13 14 14 14 14 14 13 12 12 11 10 10 10 10 10 10 10 9 8 7
14 14 14 13 13 13 13 13 12 11 10 10 9 9 9 9 9 9 7 7 6 6
11 12 13 12 11 11 11 11 10 10 9 8 8 8 8 8 7 7 6 5 5 4
9 9 8 9 9 9 9 9 9 8 7 7 6 6 6 6 6 5 4 3 3 2
6 7 7 8 8 8 7 7 6 6 6 5 5 5 5 5 5 4 3 3 2 1
6 6 6 5 5 5 5 5 4 4 3 4 4 5 5 4 3 2 2 1 1 0
4 4 4 4 4 4 4 3 3 3 3 3 4 3 3 3 2 1 1 0 -0 -1
2 3 3 2 2 2 2 2 2 1 1 1 1 2 2 2 1 1 1 -1 -1 -1
1 1 1 1 2 1 0 0 0 1 1 1 0 1 1 1 0 -0 -1 -1 -1 -1
-0 -0 -1 -1 0 -0 -0 -0 -1 -0 -0 -0 -1 -1 -0 0 0 -1 -1 -1 -2 -3
-0 -1 -1 -1 -1 -1 0 0 0 -0 -1 -1 -2 -1 -0 -0 -1 -1 -2 -3 -4 -3
-1 -1 -1 -1 -0 0 0 -1 -1 -1 -2 -2 -2 -2 -2 -2 -2 -3 -3 -3 -3 -3
-0 -0 -0 -0 -0 -0 -1 -1 -2 -2 -3 -2 -2 -2 -2 -2 -2 -3 -3 -3 -4 -4
Height
748 751 751 752 753 754 756 757 759 761 764 768 771 775 779 785 790 795 801 805 807 810
744 744 744 745 748 749 750 751 754 757 760 763 768 771 776 781 786 793 797 802 806 810
739 739 739 739 741 744 746 748 751 753 756 760 764 768 773 778 783 789 794 799 804 810
733 734 734 735 737 740 743 745 748 751 754 758 762 767 772 777 782 787 793 799 803 808
730 731 732 734 736 738 741 744 746 749 752 757 761 766 771 778 785 790 795 799 804 808
731 733 734 735 737 738 740 744 748 751 754 756 761 766 773 779 786 793 797 801 804 809
734 734 735 737 739 742 744 747 750 754 757 759 763 768 775 780 787 792 799 800 805 809
740 739 740 742 743 744 746 752 755 757 762 766 768 772 777 782 788 794 799 802 805 807
745 744 745 747 748 750 754 755 760 763 766 771 774 779 783 786 790 794 798 801 805 809
751 751 751 753 752 756 761 765 767 770 773 775 780 784 787 789 793 796 800 803 806 808
758 757 759 760 757 762 766 770 775 777 779 782 786 790 790 791 794 799 802 803 806 808
763 765 766 765 765 770 773 777 782 782 786 788 791 793 794 795 799 801 803 804 805 804
768 770 771 773 775 776 779 784 788 789 792 794 795 797 797 798 801 802 803 803 801 800
772 775 777 778 781 783 786 788 791 793 795 797 798 799 800 802 802 801 800 800 800 800
Wind_Speed
19 21 26 32 34 34 35 36 35 38 39 38 37 36 36 35 35 34 29 23 21 21
12 16 25 26 30 31 30 29 28 29 33 33 31 30 29 30 30 27 24 21 17 15
15 16 18 22 24 24 24 23 22 22 26 28 27 27 27 26 26 25 19 16 17 13
15 15 15 15 15 14 15 16 16 18 21 23 24 23 25 25 22 21 21 18 16 13
8 9 7 7 7 7 9 11 14 17 20 21 23 24 23 23 22 23 22 18 16 13
3 1 2 4 6 8 10 12 13 17 21 23 24 25 25 26 25 21 18 13 10 8
6 7 9 11 13 15 16 17 19 20 22 25 28 29 29 26 22 18 14 13 11 8
14 15 17 18 19 20 20 20 21 25 25 27 27 26 27 25 23 19 14 9 5 1
17 19 21 21 22 22 23 25 26 28 29 28 28 24 22 20 17 13 9 7 4 4
17 20 21 22 26 26 25 26 29 30 28 27 21 17 16 16 14 11 8 7 5 2
14 18 17 20 27 27 25 25 24 27 26 24 19 17 17 16 14 12 9 5 2 2
15 17 18 24 27 26 29 27 24 24 22 21 18 15 15 13 10 8 5 2 2 4
17 20 22 25 26 26 26 24 22 21 18 16 15 11 9 8 5 4 3 4 7 8
20 22 22 24 23 24 23 21 18 17 15 14 12 10 8 4 4 5 7 7 7 9
Wind_Direction
240 240 241 241 241 242 246 246 244 235 231 228 224 221 219 218 217 216 217 221 220 217
267 250 243 247 250 251 252 250 246 238 230 227 222 217 215 214 211 208 209 212 216 210
269 264 257 251 251 250 251 247 242 234 227 222 218 213 206 202 197 196 192 185 172 169
267 259 255 247 244 240 238 236 229 219 209 206 204 198 192 188 183 173 160 154 153 143
277 264 245 225 220 216 213 211 208 197 191 189 183 178 174 161 157 151 144 138 130 122
49 75 175 181 170 168 174 172 171 176 173 164 162 157 153 148 141 138 137 137 132 135
80 106 121 124 127 132 138 140 143 144 145 149 145 144 141 141 137 131 131 134 145 171
95 110 114 117 125 127 127 127 134 134 134 135 136 137 134 131 133 137 136 132 133 183
97 109 107 109 110 113 118 130 127 118 118 116 116 125 132 133 134 131 130 122 135 187
95 100 107 112 114 109 109 116 117 123 127 124 117 124 125 121 114 115 121 127 138 157
88 98 101 106 109 116 116 111 112 118 117 111 107 116 111 110 114 115 117 124 115 315
102 99 101 104 112 116 121 117 117 118 118 112 105 106 103 102 106 111 118 97 346 346
113 115 113 117 121 120 120 117 113 106 104 108 107 89 83 87 107 103 90 9 4 354
122 124 124 122 123 122 119 116 114 116 114 105 98 105 97 106 73 47 17 7 352 345